Погода в Алсунге

Латвия     56°58′52″N   21°33′36″E
темп.,
°C
ветер,
м/с
пор.,
м/с
влажн.,
%
обл.,
%
осадки,
мм/ч
давл.,
гПа
погр.,
м
16 сентября, чт
чт1600:00+8в379097 0.0 1020166
03:00+7в379465 0.0 1019168
06:00+7в4895100 0.0 1019187
09:00+8в51085100 0.0 1018295
12:00+13вюв61063100 0.0 1017610
15:00+16вюв6854100 0.0 1015872
18:00+11вюв51281100 0.6 1014599
21:00+11в61285100 0.8 1014540
17 сентября, пт
пт1700:00+11в61281100 0.1 1014504
03:00+10в51285100 0.4 1013435
06:00+10в6127689 0.1 1013467
09:00+10в61273100 0.1 1013507
12:00+11в61270100 0.0 1014546
15:00+13в61061100 0.1 1015811
18:00+14в4859100 0.0 10151119
21:00+11всв41067100 0.0 1017539
18 сентября, сб
сб1800:00+10всв51164100 0.0 1018584
03:00+9всв5117197 0.0 1019477
06:00+7всв51178100 0.0 1019442
09:00+9всв5127198 0.0 1020630
12:00+12всв694767 0.0 10201109
15:00+14всв79416 0.0 10201287
18:00+13всв69490 0.0 10211247
21:00+9св512600 0.0 1022586
19 сентября, вс
вс1900:00+7св412730 0.0 1022377
03:00+6св411790 0.0 1022343
06:00+6св511850 0.0 1022409
09:00+9св612760 0.0 1022740
12:00+12всв69535 0.0 10221123
15:00+14всв68464 0.0 10221311
18:00+12всв58505 0.0 10221262
21:00+8св411664 0.0 1023402
20 сентября, пн
пн2000:00+7св411735 0.0 1024371
03:00+6св410822 0.0 1025332
06:00+5св411860 0.0 1025407
09:00+7св511760 0.0 1026619
12:00+11всв68483 0.0 10261110
15:00+13всв68435 0.0 10261299
18:00+12св68535 0.0 10261225
21:00+7св410675 0.0 1027398